GW0353 Weather Reports


Display with metric or nautical units.
time (UTC)temp
F
wind
direction
speed
MPH
gust
MPH
rain 1hr
in
rain 24hr
in
rain mn
in
humidity
%
barometer
mb
20260904222057 73 200 2.0 16.0 0.00 0.00 0.00 25 1018.0
20260904221608 73 235 6.0 16.0 0.00 0.00 0.00 24 1018.0
20260904221059 73 286 4.0 13.0 0.00 0.00 0.00 25 1018.0
20260904220559 73 244 3.0 13.0 0.00 0.00 0.00 25 1017.9
20260904220109 73 210 3.0 12.0 0.00 0.00 0.00 24 1018.0
20260904215600 74 172 4.0 12.0 0.00 0.00 0.00 25 1018.2
20260904215058 73 256 3.0 10.0 0.00 0.00 0.00 25 1018.1
20260904214607 73 89 4.0 10.0 0.00 0.00 0.00 26 1018.0
20260904214058 74 207 3.0 10.0 0.00 0.00 0.00 25 1018.1
20260904213558 73 86 3.0 13.0 0.00 0.00 0.00 24 1017.9
20260904213108 73 172 3.0 13.0 0.00 0.00 0.00 26 1018.2
20260904212558 73 307 6.0 24.0 0.00 0.00 0.00 25 1018.0
20260904212058 72 186 10.0 24.0 0.00 0.00 0.00 26 1018.0
20260904211613 74 175 7.0 13.0 0.00 0.00 0.00 25 1017.9
20260904211057 73 205 1.0 5.0 0.00 0.00 0.00 26 1017.9
20260904210559 73 250 2.0 5.0 0.00 0.00 0.00 26 1017.8
20260904210107 74 80 1.0 6.0 0.00 0.00 0.00 25 1017.7
20260904205558 74 285 2.0 7.0 0.00 0.00 0.00 25 1017.6
20260904205057 73 285 2.0 9.0 0.00 0.00 0.00 25 1017.6
20260904204604 73 325 4.0 9.0 0.00 0.00 0.00 25 1017.5
20260904204058 72 299 3.0 9.0 0.00 0.00 0.00 26 1017.6
20260904203558 71 64 2.0 8.0 0.00 0.00 0.00 27 1017.5
20260904203108 71 32 1.0 11.0 0.00 0.00 0.00 27 1017.6
20260904202557 69 348 2.0 13.0 0.00 0.00 0.00 26 1017.5
20260904202058 69 53 1.0 13.0 0.00 0.00 0.00 28 1017.5
20260904201633 69 60 5.0 12.0 0.00 0.00 0.00 27 1017.5
20260904201057 69 181 4.0 15.0 0.00 0.00 0.00 28 1017.5
20260904200558 69 21 6.0 15.0 0.00 0.00 0.00 28 1017.5
20260904200110 69 151 4.0 15.0 0.00 0.00 0.00 29 1017.6
20260904195602 68 51 7.0 15.0 0.00 0.00 0.00 28 1017.6
20260904195059 68 73 4.0 18.0 0.00 0.00 0.00 28 1017.6
20260904194606 68 42 6.0 18.0 0.00 0.00 0.00 28 1017.6
20260904194058 68 92 10.0 18.0 0.00 0.00 0.00 28 1017.7
20260904193558 68 67 6.0 15.0 0.00 0.00 0.00 29 1017.7
20260904193107 68 68 6.0 17.0 0.00 0.00 0.00 31 1017.7
20260904192558 67 53 6.0 17.0 0.00 0.00 0.00 29 1017.7
20260904192100 68 54 4.0 14.0 0.00 0.00 0.00 29 1017.8
20260904191603 67 311 5.0 16.0 0.00 0.00 0.00 30 1017.8
20260904191100 67 44 8.0 16.0 0.00 0.00 0.00 30 1017.7
20260904190602 67 44 5.0 18.0 0.00 0.00 0.00 30 1017.8
20260904190105 68 151 6.0 18.0 0.00 0.00 0.00 30 1017.7
20260904185601 68 154 5.0 15.0 0.00 0.00 0.00 31 1017.7
20260904185101 67 42 5.0 13.0 0.00 0.00 0.00 30 1017.9
20260904184620 67 27 6.0 13.0 0.00 0.00 0.00 30 1017.8
20260904184058 67 114 3.0 12.0 0.00 0.00 0.00 31 1017.9
20260904183601 66 162 6.0 13.0 0.00 0.00 0.00 32 1017.9
20260904183117 67 87 5.0 13.0 0.00 0.00 0.00 33 1017.9
20260904182558 68 146 3.0 11.0 0.00 0.00 0.00 31 1017.9
20260904182057 66 115 4.0 11.0 0.00 0.00 0.00 32 1017.9
20260904181606 66 335 4.0 10.0 0.00 0.00 0.00 32 1017.9
20260904181058 66 125 4.0 14.0 0.00 0.00 0.00 34 1017.9
20260904180558 66 163 6.0 14.0 0.00 0.00 0.00 34 1017.9
20260904180109 66 120 6.0 11.0 0.00 0.00 0.00 33 1018.1
20260904175557 67 80 1.0 5.0 0.00 0.00 0.00 35 1018.1
20260904175059 68 79 2.0 4.0 0.00 0.00 0.00 37 1018.0
20260904174605 68 321 1.0 3.0 0.00 0.00 0.00 36 1018.1
20260904174058 69 0 0.0 3.0 0.00 0.00 0.00 37 1018.1
20260904173557 67 310 0.0 3.0 0.00 0.00 0.00 37 1017.9
20260904173104 66 0 1.0 3.0 0.00 0.00 0.00 38 1017.9
20260904172558 65 314 1.0 3.0 0.00 0.00 0.00 39 1017.9
20260904172059 64 0 0.0 6.0 0.00 0.00 0.00 41 1018.0
20260904171616 64 138 0.0 6.0 0.00 0.00 0.00 40 1018.0
20260904171102 64 37 1.0 5.0 0.00 0.00 0.00 40 1018.1
20260904170558 62 12 1.0 5.0 0.00 0.00 0.00 43 1018.0
20260904170109 62 83 1.0 4.0 0.00 0.00 0.00 44 1018.1
20260904165600 62 45 1.0 4.0 0.00 0.00 0.00 44 1018.1
20260904165101 61 51 0.0 3.0 0.00 0.00 0.00 46 1018.2
20260904164634 60 0 1.0 3.0 0.00 0.00 0.00 45 1018.2
20260904164058 60 103 1.0 4.0 0.00 0.00 0.00 45 1018.2
20260904163558 59 39 1.0 4.0 0.00 0.00 0.00 47 1018.2
20260904163103 59 174 2.0 4.0 0.00 0.00 0.00 48 1018.3
20260904162557 60 87 1.0 3.0 0.00 0.00 0.00 47 1018.3
20260904162057 59 63 0.0 3.0 0.00 0.00 0.00 49 1018.3
20260904161605 58 117 1.0 2.0 0.00 0.00 0.00 49 1018.3
20260904161057 57 104 0.0 3.0 0.00 0.00 0.00 50 1018.3
20260904160558 57 80 1.0 4.0 0.00 0.00 0.00 51 1018.5
20260904160112 57 115 2.0 4.0 0.00 0.00 0.00 52 1018.4
20260904155558 58 71 0.0 4.0 0.00 0.00 0.00 52 1018.5
20260904155057 57 0 1.0 4.0 0.00 0.00 0.00 52 1018.5
20260904154605 56 71 0.0 2.0 0.00 0.00 0.00 53 1018.6
20260904154057 56 0 0.0 4.0 0.00 0.00 0.00 56 1018.6
20260904153558 55 59 1.0 4.0 0.00 0.00 0.00 57 1018.5
20260904153113 55 127 1.0 2.0 0.00 0.00 0.00 58 1018.5
20260904152558 55 49 0.0 3.0 0.00 0.00 0.00 58 1018.5
20260904152057 54 94 1.0 3.0 0.00 0.00 0.00 59 1018.6
20260904151604 53 58 0.0 2.0 0.00 0.00 0.00 60 1018.6
20260904151057 53 58 1.0 2.0 0.00 0.00 0.00 61 1018.5
20260904150558 52 0 0.0 2.0 0.00 0.00 0.00 63 1018.6
20260904150107 51 67 1.0 3.0 0.00 0.00 0.00 63 1018.5
20260904145558 51 0 1.0 3.0 0.00 0.00 0.00 63 1018.4
20260904145059 51 56 0.0 1.0 0.00 0.00 0.00 64 1018.4
20260904144619 50 0 0.0 5.0 0.00 0.00 0.00 66 1018.5
20260904144058 48 0 1.0 5.0 0.00 0.00 0.00 67 1018.4
20260904143558 48 51 1.0 5.0 0.00 0.00 0.00 69 1018.3
20260904143106 47 82 2.0 5.0 0.00 0.00 0.00 70 1018.3
20260904142558 46 46 3.0 4.0 0.00 0.00 0.00 70 1018.2
20260904142101 46 0 0.0 2.0 0.00 0.00 0.00 71 1018.2
20260904141606 46 115 0.0 3.0 0.00 0.00 0.00 70 1018.1
20260904141059 46 82 0.0 4.0 0.00 0.00 0.00 71 1018.2
20260904140600 46 101 2.0 4.0 0.00 0.00 0.00 72 1018.1
20260904140110 45 104 1.0 3.0 0.00 0.00 0.00 73 1018.1
20260904135559 45 0 1.0 3.0 0.00 0.00 0.00 74 1018.1
20260904135100 43 131 0.0 2.0 0.00 0.00 0.00 77 1017.9
20260904134604 44 0 0.0 3.0 0.00 0.00 0.00 76 1018.0
20260904134058 44 153 0.0 3.0 0.00 0.00 0.00 76 1018.0
20260904133600 44 129 2.0 3.0 0.00 0.00 0.00 77 1018.0
20260904133106 44 163 0.0 4.0 0.00 0.00 0.00 74 1017.9
20260904132559 45 0 0.0 4.0 0.00 0.00 0.00 75 1018.1
20260904132059 44 103 0.0 4.0 0.00 0.00 0.00 76 1017.9
20260904131612 44 0 2.0 4.0 0.00 0.00 0.00 76 1017.8
20260904131100 43 157 0.0 2.0 0.00 0.00 0.00 76 1017.9
20260904130558 43 0 0.0 3.0 0.00 0.00 0.00 79 1017.8
20260904130109 42 0 0.0 3.0 0.00 0.00 0.00 76 1017.8
20260904125559 42 0 1.0 4.0 0.00 0.00 0.00 81 1017.7
20260904125059 41 157 0.0 4.0 0.00 0.00 0.00 79 1017.5
20260904124607 41 0 2.0 4.0 0.00 0.00 0.00 80 1017.6
20260904124059 41 0 0.0 3.0 0.00 0.00 0.00 78 1017.5
20260904123558 41 232 0.0 2.0 0.00 0.00 0.00 81 1017.4
20260904123105 41 0 0.0 2.0 0.00 0.00 0.00 80 1017.5
20260904122558 41 0 0.0 3.0 0.00 0.00 0.00 79 1017.5
20260904122101 41 0 0.0 3.0 0.00 0.00 0.00 79 1017.4
20260904121606 41 0 0.0 3.0 0.00 0.00 0.00 80 1017.4
20260904121058 41 0 0.0 2.0 0.00 0.00 0.00 80 1017.4
20260904120559 41 0 0.0 2.0 0.00 0.00 0.00 79 1017.5
20260904120108 41 0 0.0 2.0 0.00 0.00 0.00 78 1017.4
20260904115559 42 0 0.0 2.0 0.00 0.00 0.00 78 1017.6
20260904115059 42 211 0.0 4.0 0.00 0.00 0.00 78 1017.5
20260904114608 42 0 0.0 4.0 0.00 0.00 0.00 79 1017.6
20260904114059 42 181 2.0 4.0 0.00 0.00 0.00 79 1017.8
20260904113558 41 113 0.0 4.0 0.00 0.00 0.00 79 1017.8
20260904113106 41 233 1.0 4.0 0.00 0.00 0.00 80 1017.7
20260904112559 41 0 0.0 2.0 0.00 0.00 0.00 80 1017.6
20260904112058 41 0 1.0 3.0 0.00 0.00 0.00 78 1017.7
20260904111606 41 0 1.0 3.0 0.00 0.00 0.00 77 1017.6
20260904111058 42 152 0.0 3.0 0.00 0.00 0.00 79 1017.7
20260904110558 41 0 1.0 3.0 0.00 0.00 0.00 80 1017.6
20260904110108 41 0 0.0 3.0 0.00 0.00 0.00 78 1017.7
20260904105602 42 162 1.0 3.0 0.00 0.00 0.00 77 1017.7
20260904105059 42 251 1.0 3.0 0.00 0.00 0.00 79 1017.7
20260904104608 42 165 0.0 3.0 0.00 0.00 0.00 78 1017.7
20260904104059 42 0 0.0 3.0 0.00 0.00 0.00 79 1017.9
20260904103558 42 172 0.0 3.0 0.00 0.00 0.00 79 1017.7
20260904103103 42 0 1.0 2.0 0.00 0.00 0.00 79 1017.7
20260904102559 42 174 0.0 2.0 0.00 0.00 0.00 79 1017.7
20260904102102 42 160 1.0 4.0 0.00 0.00 0.00 78 1017.8
20260904101611 42 0 0.0 4.0 0.00 0.00 0.00 78 1017.7
20260904101059 42 115 1.0 4.0 0.00 0.00 0.00 77 1017.7
20260904100558 43 233 0.0 2.0 0.00 0.00 0.00 75 1017.9
20260904100111 43 240 0.0 1.0 0.00 0.00 0.00 78 1017.7
20260904095559 42 0 0.0 3.0 0.00 0.00 0.00 77 1017.8
20260904095058 42 0 1.0 3.0 0.00 0.00 0.00 78 1017.8
20260904094611 43 187 0.0 1.0 0.00 0.00 0.00 76 1017.7
20260904094059 43 197 0.0 7.0 0.00 0.00 0.00 77 1017.8
20260904093559 42 0 3.0 7.0 0.00 0.00 0.00 77 1017.8
20260904093117 43 241 0.0 1.0 0.00 0.00 0.00 75 1017.7
20260904092558 43 0 0.0 0.0 0.00 0.00 0.00 76 1017.9
20260904092058 43 0 0.0 3.0 0.00 0.00 0.00 76 1017.9
20260904091616 43 0 1.0 3.0 0.00 0.00 0.00 74 1017.9
20260904091058 44 0 0.0 3.0 0.00 0.00 0.00 75 1017.9
20260904090558 44 219 0.0 3.0 0.00 0.00 0.00 75 1017.9
20260904090106 44 167 0.0 2.0 0.00 0.00 0.00 73 1018.2
20260904085556 45 0 0.0 3.0 0.00 0.00 0.00 73 1017.9
20260904085058 45 0 0.0 5.0 0.00 0.00 0.00 73 1018.2
20260904084606 45 0 0.0 5.0 0.00 0.00 0.00 74 1018.4
20260904084059 44 124 1.0 5.0 0.00 0.00 0.00 73 1018.3
20260904083557 44 0 0.0 2.0 0.00 0.00 0.00 73 1018.3
20260904083106 44 165 0.0 2.0 0.00 0.00 0.00 72 1018.4
20260904082559 44 0 0.0 2.0 0.00 0.00 0.00 73 1018.3
20260904082057 45 0 0.0 2.0 0.00 0.00 0.00 71 1018.2
20260904081611 45 0 1.0 4.0 0.00 0.00 0.00 71 1018.1
20260904081056 45 213 0.0 6.0 0.00 0.00 0.00 73 1018.3
20260904080559 45 119 3.0 6.0 0.00 0.00 0.00 71 1018.2
20260904080104 45 186 0.0 1.0 0.00 0.00 0.00 70 1018.2
20260904075557 46 0 0.0 2.0 0.00 0.00 0.00 70 1018.2
20260904075057 46 0 0.0 2.0 0.00 0.00 0.00 68 1018.3
20260904074604 47 0 0.0 3.0 0.00 0.00 0.00 67 1018.2
20260904074059 47 134 1.0 3.0 0.00 0.00 0.00 66 1018.4
20260904073557 48 0 0.0 3.0 0.00 0.00 0.00 66 1018.2
20260904073127 48 0 0.0 7.0 0.00 0.00 0.00 65 1018.3
20260904072556 49 149 1.0 7.0 0.00 0.00 0.00 63 1018.3
20260904072056 49 90 4.0 9.0 0.00 0.00 0.00 63 1018.1
20260904071606 49 84 4.0 9.0 0.00 0.00 0.00 63 1018.2
20260904071057 49 71 6.0 9.0 0.00 0.00 0.00 65 1018.4
20260904070600 49 104 2.0 8.0 0.00 0.00 0.00 64 1018.2
20260904070108 49 59 4.0 7.0 0.00 0.00 0.00 63 1018.2
20260904065557 49 107 4.0 8.0 0.00 0.00 0.00 63 1018.3
20260904065057 49 124 2.0 11.0 0.00 0.00 0.00 63 1018.2
20260904064608 50 82 5.0 11.0 0.00 0.00 0.00 63 1018.2
20260904064100 49 86 5.0 11.0 0.00 0.00 0.00 64 1018.3
20260904063559 49 158 4.0 9.0 0.00 0.00 0.00 63 1018.2
20260904063110 49 93 4.0 8.0 0.00 0.00 0.00 63 1018.1
20260904062557 50 122 4.0 9.0 0.00 0.00 0.00 63 1018.2
20260904062057 50 98 6.0 9.0 0.00 0.00 0.00 63 1017.9
20260904061605 50 68 4.0 9.0 0.00 0.00 0.00 63 1017.8
20260904061057 50 115 4.0 9.0 0.00 0.00 0.00 63 1017.9
20260904060600 50 131 4.0 9.0 0.00 0.00 0.00 64 1017.9
20260904060131 50 127 1.0 7.0 0.00 0.00 0.00 62 1017.9
20260904055640 51 21 2.0 12.0 0.00 0.00 0.00 62 1017.8
20260904055058 51 110 2.0 12.0 0.00 0.00 0.00 62 1017.9
20260904054637 50 127 5.0 11.0 0.00 0.00 0.00 63 1017.8
20260904054100 50 110 4.0 11.0 0.00 0.00 0.00 63 1018.0
20260904053559 50 42 4.0 9.0 0.00 0.00 0.00 65 1018.1
20260904053109 51 66 1.0 6.0 0.00 0.00 0.00 66 1018.1
20260904052559 51 126 0.0 6.0 0.00 0.00 0.00 66 1018.1
20260904052059 51 79 4.0 6.0 0.00 0.00 0.00 67 1018.0
20260904051607 50 37 2.0 5.0 0.00 0.00 0.00 66 1018.1
20260904051101 51 308 2.0 6.0 0.00 0.00 0.00 67 1017.9
20260904050559 51 0 2.0 6.0 0.00 0.00 0.00 67 1018.2
20260904045559 51 30 0.0 5.0 0.00 0.00 0.00 66 1018.3
20260904045100 51 0 1.0 9.0 0.00 0.00 0.00 66 1018.4
20260904044606 51 312 3.0 9.0 0.00 0.00 0.00 66 1018.2
20260904044100 51 181 1.0 9.0 0.00 0.00 0.00 65 1018.4
20260904043559 51 122 3.0 7.0 0.00 0.00 0.00 66 1018.2
20260904043107 51 0 1.0 3.0 0.00 0.00 0.00 67 1018.3
20260904042559 51 0 0.0 1.0 0.00 0.00 0.00 66 1018.4
20260904042100 51 0 0.0 3.0 0.00 0.00 0.00 66 1018.4
20260904041609 52 0 1.0 3.0 0.00 0.00 0.00 65 1018.4
20260904041059 52 0 0.0 2.0 0.00 0.00 0.00 63 1018.4
20260904040559 53 0 0.0 8.0 0.00 0.00 0.00 64 1018.3
20260904040109 53 0 0.0 8.0 0.00 0.00 0.00 63 1018.2
20260904035600 53 359 1.0 8.0 0.00 0.00 0.00 63 1018.3
20260904035058 54 0 0.0 4.0 0.00 0.00 0.00 61 1018.3
20260904034603 54 0 0.0 4.0 0.00 0.00 0.00 60 1018.2
20260904034101 54 119 0.0 6.0 0.00 0.00 0.00 59 1018.0
20260904033602 54 0 2.0 6.0 0.00 0.00 0.00 58 1017.9
20260904033108 55 37 2.0 6.0 0.00 0.00 0.00 60 1017.9
20260904032600 55 358 2.0 6.0 0.00 0.00 0.00 59 1017.9
20260904032059 55 52 2.0 9.0 0.00 0.00 0.00 56 1017.9
20260904031607 55 158 1.0 9.0 0.00 0.00 0.00 55 1017.9
20260904031057 55 63 2.0 9.0 0.00 0.00 0.00 55 1017.8
20260904030558 56 89 3.0 9.0 0.00 0.00 0.00 55 1017.7
20260904030104 56 37 2.0 6.0 0.00 0.00 0.00 53 1017.9
20260904025557 56 98 1.0 6.0 0.00 0.00 0.00 55 1017.8
20260904025056 57 33 1.0 11.0 0.00 0.00 0.00 56 1017.6
20260904024604 57 218 5.0 17.0 0.00 0.00 0.00 54 1017.7
20260904024100 57 88 4.0 17.0 0.00 0.00 0.00 52 1017.5
20260904023557 58 58 10.0 17.0 0.00 0.00 0.00 49 1017.4
20260904023108 59 53 3.0 8.0 0.00 0.00 0.00 52 1017.4
20260904022557 59 33 4.0 13.0 0.00 0.00 0.00 52 1017.3
20260904022057 60 12 4.0 13.0 0.00 0.00 0.00 51 1017.3
20260904021608 61 56 2.0 15.0 0.00 0.00 0.00 49 1017.1
20260904021057 62 163 6.0 15.0 0.00 0.00 0.00 44 1017.0
20260904020558 62 7 5.0 13.0 0.00 0.00 0.00 43 1017.1
20260904020106 63 79 7.0 15.0 0.00 0.00 0.00 42 1016.8
20260904015557 64 53 7.0 15.0 0.00 0.00 0.00 39 1016.8
20260904015057 64 56 4.0 8.0 0.00 0.00 0.00 38 1016.6
20260904014621 65 70 0.0 4.0 0.00 0.00 0.00 36 1016.7
20260904014059 66 218 0.0 3.0 0.00 0.00 0.00 35 1016.5
20260904013557 67 0 0.0 3.0 0.00 0.00 0.00 34 1016.5
20260904013122 67 255 0.0 6.0 0.00 0.00 0.00 33 1016.5
20260904012558 67 0 1.0 12.0 0.00 0.00 0.00 34 1016.4
20260904012057 67 163 2.0 12.0 0.00 0.00 0.00 36 1016.6
20260904011606 68 185 3.0 17.0 0.00 0.00 0.00 35 1016.7
20260904011057 69 131 9.0 17.0 0.00 0.00 0.00 26 1016.8
20260904010557 69 173 4.0 14.0 0.00 0.00 0.00 32 1016.8
20260904010116 69 248 4.0 13.0 0.00 0.00 0.00 30 1016.9
20260904005557 70 244 3.0 9.0 0.00 0.00 0.00 31 1017.0
20260904005100 70 232 2.0 13.0 0.00 0.00 0.00 33 1016.9
20260904004625 70 229 3.0 13.0 0.00 0.00 0.00 31 1017.0
20260904004058 70 161 3.0 11.0 0.00 0.00 0.00 30 1017.0
20260904003557 70 212 4.0 13.0 0.00 0.00 0.00 30 1017.1
20260904003133 70 323 4.0 13.0 0.00 0.00 0.00 32 1017.1
20260904002600 70 259 4.0 10.0 0.00 0.00 0.00 29 1016.9
20260904002057 70 197 3.0 10.0 0.00 0.00 0.00 30 1017.1
20260904001602 70 313 6.0 16.0 0.00 0.00 0.00 29 1017.2
20260904001057 69 215 8.0 16.0 0.00 0.00 0.00 30 1017.0
20260904000557 70 139 8.0 17.0 0.00 0.00 0.00 29 1017.2
20260904000106 70 161 7.0 17.0 0.00 0.00 0.00 30 1017.2
20260903235557 71 167 4.0 11.0 0.00 0.00 0.00 31 1017.2
20260903235059 70 235 5.0 12.0 0.00 0.00 0.00 30 1017.1
20260903234607 71 231 4.0 13.0 0.00 0.00 0.00 29 1017.2
20260903234059 70 190 6.0 14.0 0.00 0.00 0.00 30 1017.1
20260903233602 70 187 4.0 14.0 0.00 0.00 0.00 31 1017.1
20260903233107 70 167 7.0 18.0 0.00 0.00 0.00 31 1017.1
20260903232559 70 153 10.0 19.0 0.00 0.00 0.00 30 1017.0
20260903232059 71 139 7.0 19.0 0.00 0.00 0.00 28 1017.1
20260903231611 71 160 10.0 19.0 0.00 0.00 0.00 29 1017.3
20260903231058 72 159 8.0 17.0 0.00 0.00 0.00 28 1017.3
20260903230558 73 121 6.0 13.0 0.00 0.00 0.00 29 1017.2
20260903230106 73 247 4.0 12.0 0.00 0.00 0.00 28 1017.2
20260903225558 73 151 3.0 11.0 0.00 0.00 0.00 28 1017.3
20260903225059 74 160 3.0 11.0 0.00 0.00 0.00 27 1017.4
20260903224609 74 290 2.0 11.0 0.00 0.00 0.00 28 1017.4
20260903224058 75 150 0.0 4.0 0.00 0.00 0.00 26 1017.4
20260903223602 74 252 1.0 4.0 0.00 0.00 0.00 28 1017.3
20260903223119 73 323 1.0 4.0 0.00 0.00 0.00 28 1017.4
20260903222559 73 18 1.0 4.0 0.00 0.00 0.00 25 1017.4